パンスターズ彗星

394P/PanSTARRS (2019)

English version
Home page
Updated on July 8, 2020

---------------------------------------------------------------------

・ プロフィール

符号 394P/2020 F4
発見日 2020年3月24日
発見光度 20.7等
発見者 Pan-STARRS 1 telescope (Haleakala)

・ 軌道要素

Epoch 2019 Dec. 23.0 TT = JDT 2458840.5                                         
T 2019 Nov. 30.45657 TT                                 Spoto                   
q   2.7379150            (2000.0)            P               Q                  
n   0.10920421     Peri.   54.52727     -0.87931499     -0.45304128             
a   4.3348737      Node    98.12463     +0.37460789     -0.84834170             
e   0.3683980      Incl.    8.52944     +0.29406475     -0.27398896             
P   9.03                                                                        
From 94 observations 2002 Apr. 1-2020 Apr. 1, mean residual 0".9.               
     Nongravitational parameters Y1 = +0.03, Y2 = -0.0017, Y3 = -0.0902.        

・ 光度変化

        m1 = 14.0 + 5 logΔ + 10.0 log r

---------------------------------------------------------------------

軌道要素はM.P.E.C. 2020-G64に掲載されたものです。
光度グラフはComet for Windowsで作成したものです。

---------------------------------------------------------------------

Copyright(C) Seiichi Yoshida (comet@aerith.net). All rights reserved.